Miscellaneous Local Product
Issued by NWS Hastings, NE

Home | Current Version | Previous Version | Text Only | Print | Product List | Glossary On
Versions: 1 2 3 4 5 6 7 8 9 10 11 12 13 14 15 16 17 18 19 20 21 22 23 24 25 26 27 28 29 30 31 32 33 34 35 36 37 38 39 40 41 42 43 44 45 46 47 48 49 50
000
AXUS43 KGID 291702
MISGRI

GID CWA HOURLY WEATHER ROUNDUP
NATIONAL WEATHER SERVICE HASTINGS NE
1200 PM CDT THU SEP 29 2016

NOTE: "FAIR" INDICATES FEW OR NO CLOUDS BELOW 12,000 FEET WITH NO
SIGNIFICANT WEATHER AND/OR OBSTRUCTIONS TO VISIBILITY.

...SOUTH CENTRAL NEBRASKA...

CITY           SKY/WX    TMP DP  RH WIND       PRES   REMARKS
GRAND ISLAND   MOSUNNY   60  45  57 VRB3      30.47F
HASTINGS       MOSUNNY   59  45  59 S3        30.47F
KEARNEY        SUNNY     61  45  55 CALM      30.45F
ORD            SUNNY     61  44  53 CALM      30.44F
YORK           MOSUNNY   59  48  67 CALM      30.46F
AURORA         PTSUNNY   61  46  59 N3        30.46S
LEXINGTON      SUNNY     63  45  52 SE7       30.44F
HOLDREGE       SUNNY     61  42  50 CALM      30.45F
HEBRON         PTSUNNY   63  48  58 NW5       30.44F

...NEBRASKA PANHANDLE...

CITY           SKY/WX    TMP DP  RH WIND       PRES   REMARKS
CHADRON        SUNNY     72  44  36 S13       30.30F
ALLIANCE       SUNNY     68  43  40 S14       30.35F
SCOTTSBLUFF    SUNNY     66  45  46 E14       30.33F
SIDNEY         SUNNY     69  44  40 S17       30.38F

...WESTERN AND NORTH CENTRAL NEBRASKA...

CITY           SKY/WX    TMP DP  RH WIND       PRES   REMARKS
VALENTINE      SUNNY     65  42  43 SE14      30.40F
AINSWORTH      SUNNY     64  46  53 S12       30.42F
ONEILL         SUNNY     62  45  54 S3        30.45F
BROKEN BOW     SUNNY     60  44  55 VRB6      30.44F
IMPERIAL       SUNNY     66  42  41 SE15G22   30.40F
NORTH PLATTE   SUNNY     64  42  44 S8        30.42F
MCCOOK         SUNNY     63  43  48 SE10      30.43F

...EASTERN NEBRASKA...

CITY           SKY/WX    TMP DP  RH WIND       PRES   REMARKS
NORFOLK        SUNNY     62  45  53 CALM      30.46F
SO SIOUX CITY  MOSUNNY   63  53  70 CALM      30.46F
TEKAMAH        SUNNY     64  51  62 N6        30.45F
COLUMBUS       MOSUNNY   63  45  51 CALM      30.46F
ALBION         PTSUNNY   60  46  59 CALM      30.46F
OMAHA EPPLEY   MOSUNNY   65  52  62 NW10      30.44F
OFFUTT AFB     MOSUNNY   64  52  66 NW7       30.43F
MILLARD        MOSUNNY   63  53  67 NW3       30.44F
LINCOLN        MOSUNNY   65  52  62 NE6       30.45F
NEBRASKA CITY  SUNNY     64  46  52 N5        30.43F
BEATRICE       MOSUNNY   64  51  61 NE5       30.43F
FALLS CITY     SUNNY     66  50  56 NE9       30.40F

...NORTHERN KANSAS...

CITY           SKY/WX    TMP DP  RH WIND       PRES   REMARKS
GOODLAND       LGT RAIN  66  42  41 SE15      30.40F
HILL CITY      SUNNY     63  46  54 MISG      30.45F
NORTON         SUNNY     63  39  42 SE5       30.44F
PHILLIPSBURG   SUNNY     64  46  52 E6        30.45F
SMITH CENTER   SUNNY     63  46  55 CALM      30.46F HAZE
HAYS           SUNNY     63  41  45 NE5       30.44F
RUSSELL        SUNNY     61  47  59 NW5       30.44F
CONCORDIA      MOSUNNY   64  50  60 NE7       30.44F
SALINA         MOSUNNY   63  49  60 CALM      30.44F
TOPEKA         SUNNY     66  52  60 N9        30.40F



USA.gov is the U.S. government's official web portal to all federal, state and local government web resources and services.